Regional Weather Roundup
Issued by NWS

Home | Current Version | Previous Version | Text Only | Print | Product List | Glossary On
Versions: 1 2 3 4 5 6 7 8 9 10 11 12 13 14 15 16 17 18 19 20 21 22 23 24 25 26 27 28 29 30 31 32 33 34 35 36 37 38 39 40 41 42 43 44 45 46 47 48 49 50
000
ASUS43 KFSD 281710
RWRSD

WEATHER ROUNDUP FOR SOUTH DAKOTA
NATIONAL WEATHER SERVICE SIOUX FALLS SD
1200 PM CDT WED SEP 28 2016

NOTE: "FAIR" INDICATES FEW OR NO CLOUDS BELOW 12,000 FEET WITH NO
SIGNIFICANT WEATHER AND/OR OBSTRUCTIONS TO VISIBILITY.


SDZ001>005-009-010-012>017-281800-
NORTHWEST AND NORTH CENTRAL SOUTH DAKOTA

CITY           SKY/WX    TMP DP  RH WIND       PRES   REMARKS
BUFFALO          N/A     73  49  42 W3        30.19S
FAITH            N/A     67  41  38 S8        30.25R
MOBRIDGE       SUNNY     60  43  53 SE7       30.26R
$$

SDZ012>016-024>037-041>051-057-063-072>074-281800-
SOUTHWEST AND SOUTH CENTRAL SOUTH DAKOTA

CITY           SKY/WX    TMP DP  RH WIND       PRES   REMARKS
RAPID CTY ARPT SUNNY     75  45  34 N7        30.26S
PIERRE         SUNNY     60  42  51 VRB6      30.26R
CUSTER         SUNNY     69  39  33 E5        30.37S
ELLSWORTH AFB  SUNNY     73  46  38 N7        30.26R
PHILIP         SUNNY     68  44  42 E7        30.25S
PINE RIDGE     SUNNY     73  45  36 W5        30.26F
WINNER         FAIR      64  39  39 E7        30.27R
$$

SDZ004>011-016>023-039-040-281800-
NORTHEAST SOUTH DAKOTA

CITY           SKY/WX    TMP DP  RH WIND       PRES   REMARKS
ABERDEEN       SUNNY     57  42  57 N7        30.29S
WATERTOWN      SUNNY     56  45  66 N8        30.25R
BROOKINGS      SUNNY     52  45  77 N8        30.25R
SISSETON         N/A     48  44  86 N7        30.28R
$$

SDZ017-020-022-023-036>040-048>070-281800-
SOUTHEAST SOUTH DAKOTA

CITY           SKY/WX    TMP DP  RH WIND       PRES   REMARKS
SIOUX FALLS    MOSUNNY   58  46  64 NE8       30.24R
HURON          SUNNY     58  44  60 N8        30.26S
CHAMBERLAIN    SUNNY     60  46  59 NE5       30.27S
MITCHELL       MOSUNNY   54  44  69 N8        30.28R
YANKTON        MOSUNNY   57  45  62 NW10      30.23R
$$

ABBREVIATIONS USED IN REMARKS
   TC - TEMPERATURE IN CELSIUS
  WCI - WIND CHILL INDEX
   HX - HEAT INDEX
  VSB - VISIBILITY




USA.gov is the U.S. government's official web portal to all federal, state and local government web resources and services.